Time,TemperatureF,DewpointF,PressureIn,WindDirection,WindDirectionDegrees,WindSpeedMPH,WindSpeedGustMPH,Humidity,HourlyPrecipIn,Conditions,Clouds,dailyrainin,SoftwareType,DateUTC
2013-05-10 00:01:00,65.5,58.1,30.05,WNW,302,0.0,0.0,77,0.00,,---,0.00,VWS V14.00,2013-05-10 04:01:00,
2013-05-10 00:06:00,66.0,58.2,30.06,WNW,302,0.0,0.0,76,0.00,,---,0.00,VWS V14.00,2013-05-10 04:06:00,
2013-05-10 00:11:00,66.5,58.3,30.06,WNW,302,0.0,1.0,75,0.00,,---,0.00,VWS V14.00,2013-05-10 04:11:00,
2013-05-10 00:16:00,67.1,58.5,30.06,WNW,302,0.0,1.0,74,0.00,,---,0.00,VWS V14.00,2013-05-10 04:16:00,
2013-05-10 00:21:00,67.6,58.7,30.06,WNW,302,0.0,1.0,73,0.00,,---,0.00,VWS V14.00,2013-05-10 04:21:00,
2013-05-10 00:26:00,68.1,58.3,30.06,WNW,302,0.0,2.0,71,0.00,,---,0.00,VWS V14.00,2013-05-10 04:26:00,
2013-05-10 00:31:00,68.5,58.7,30.06,WNW,302,1.0,2.0,71,0.00,,---,0.00,VWS V14.00,2013-05-10 04:31:00,
2013-05-10 00:36:00,68.9,58.7,30.06,WNW,302,1.0,2.0,70,0.00,,---,0.00,VWS V14.00,2013-05-10 04:36:00,
2013-05-10 00:41:00,69.3,58.7,30.06,WNW,302,0.0,2.0,69,0.00,,---,0.00,VWS V14.00,2013-05-10 04:41:00,
2013-05-10 00:46:00,69.6,59.0,30.06,WNW,302,0.0,2.0,69,0.00,,---,0.00,VWS V14.00,2013-05-10 04:46:00,
2013-05-10 00:51:00,69.6,58.6,30.06,WNW,302,0.0,2.0,68,0.00,,---,0.00,VWS V14.00,2013-05-10 04:51:00,
2013-05-10 00:56:00,69.7,58.7,30.06,WNW,302,0.0,2.0,68,0.00,,---,0.00,VWS V14.00,2013-05-10 04:56:00,
2013-05-10 01:01:00,69.7,58.7,30.05,WNW,302,0.0,1.0,68,0.00,,---,0.00,VWS V14.00,2013-05-10 05:01:00,
2013-05-10 01:06:00,69.6,58.6,30.05,WNW,302,0.0,1.0,68,0.00,,---,0.00,VWS V14.00,2013-05-10 05:06:00,
2013-05-10 01:11:00,69.5,58.9,30.06,WNW,302,0.0,1.0,69,0.00,,---,0.00,VWS V14.00,2013-05-10 05:11:00,
2013-05-10 01:16:00,69.4,58.8,30.05,WNW,302,0.0,1.0,69,0.00,,---,0.00,VWS V14.00,2013-05-10 05:16:00,
2013-05-10 01:21:00,69.2,58.6,30.06,WNW,302,0.0,1.0,69,0.00,,---,0.00,VWS V14.00,2013-05-10 05:21:00,
2013-05-10 01:26:00,69.0,58.8,30.06,WNW,302,0.0,1.0,70,0.00,,---,0.00,VWS V14.00,2013-05-10 05:26:00,
2013-05-10 01:31:00,68.8,58.6,30.05,WNW,302,0.0,2.0,70,0.00,,---,0.00,VWS V14.00,2013-05-10 05:31:00,
2013-05-10 01:36:00,68.7,58.5,30.06,WNW,302,1.0,2.0,70,0.00,,---,0.00,VWS V14.00,2013-05-10 05:36:00,
2013-05-10 01:41:00,68.6,58.8,30.05,WNW,302,0.0,2.0,71,0.00,,---,0.00,VWS V14.00,2013-05-10 05:41:00,
2013-05-10 01:46:00,68.5,58.7,30.05,WNW,302,0.0,2.0,71,0.00,,---,0.00,VWS V14.00,2013-05-10 05:46:00,
2013-05-10 01:51:00,68.4,58.6,30.04,WNW,302,0.0,2.0,71,0.00,,---,0.00,VWS V14.00,2013-05-10 05:51:00,
2013-05-10 01:56:00,68.3,58.5,30.04,WNW,302,0.0,2.0,71,0.00,,---,0.00,VWS V14.00,2013-05-10 05:56:00,
2013-05-10 02:01:00,68.2,58.5,30.04,WNW,302,0.0,2.0,71,0.00,,---,0.00,VWS V14.00,2013-05-10 06:01:00,
2013-05-10 02:06:00,68.2,58.8,30.04,WNW,302,0.0,2.0,72,0.00,,---,0.00,VWS V14.00,2013-05-10 06:06:00,
2013-05-10 02:11:00,68.0,58.7,30.04,WNW,302,0.0,2.0,72,0.00,,---,0.00,VWS V14.00,2013-05-10 06:11:00,
2013-05-10 02:18:00,67.9,58.5,30.04,WNW,302,0.0,0.0,72,0.00,,---,0.00,VWS V14.00,2013-05-10 06:18:00,
2013-05-10 02:23:00,67.9,58.5,30.04,WNW,302,0.0,1.0,72,0.00,,---,0.00,VWS V14.00,2013-05-10 06:23:00,
2013-05-10 02:28:00,67.8,58.5,30.04,WNW,302,0.0,1.0,72,0.00,,---,0.00,VWS V14.00,2013-05-10 06:28:00,
2013-05-10 02:33:00,67.8,58.5,30.04,WNW,302,0.0,1.0,72,0.00,,---,0.00,VWS V14.00,2013-05-10 06:33:00,
2013-05-10 02:38:00,67.6,58.3,30.04,WNW,302,0.0,1.0,72,0.00,,---,0.00,VWS V14.00,2013-05-10 06:38:00,
2013-05-10 02:43:00,67.5,58.2,30.04,WNW,302,0.0,1.0,72,0.00,,---,0.00,VWS V14.00,2013-05-10 06:43:00,
2013-05-10 02:48:00,67.5,58.5,30.04,WNW,302,0.0,1.0,73,0.00,,---,0.00,VWS V14.00,2013-05-10 06:48:00,
2013-05-10 02:53:00,67.3,58.4,30.04,WNW,302,0.0,1.0,73,0.00,,---,0.00,VWS V14.00,2013-05-10 06:53:00,
2013-05-10 02:58:00,67.2,58.3,30.04,WNW,302,0.0,0.0,73,0.00,,---,0.00,VWS V14.00,2013-05-10 06:58:00,
2013-05-10 03:03:00,67.0,58.1,30.04,WNW,302,0.0,1.0,73,0.00,,---,0.00,VWS V14.00,2013-05-10 07:03:00,
2013-05-10 03:08:00,66.8,58.3,30.03,WNW,302,0.0,1.0,74,0.00,,---,0.00,VWS V14.00,2013-05-10 07:08:00,
2013-05-10 03:13:00,66.7,58.2,30.03,WNW,302,0.0,1.0,74,0.00,,---,0.00,VWS V14.00,2013-05-10 07:13:00,
2013-05-10 03:18:00,66.5,58.0,30.04,WNW,302,0.0,1.0,74,0.00,,---,0.00,VWS V14.00,2013-05-10 07:18:00,
2013-05-10 03:23:00,66.4,58.2,30.03,WNW,302,0.0,1.0,75,0.00,,---,0.00,VWS V14.00,2013-05-10 07:23:00,
2013-05-10 03:28:00,66.3,58.2,30.03,WNW,302,0.0,0.0,75,0.00,,---,0.00,VWS V14.00,2013-05-10 07:28:00,
2013-05-10 03:33:00,66.2,58.0,30.03,WNW,302,0.0,0.0,75,0.00,,---,0.00,VWS V14.00,2013-05-10 07:33:00,
2013-05-10 03:38:00,66.1,58.0,30.03,WNW,302,0.0,1.0,75,0.00,,---,0.00,VWS V14.00,2013-05-10 07:38:00,
2013-05-10 03:43:00,66.1,58.0,30.03,WNW,302,0.0,1.0,75,0.00,,---,0.00,VWS V14.00,2013-05-10 07:43:00,
2013-05-10 03:48:00,66.1,58.0,30.03,WNW,302,0.0,1.0,75,0.00,,---,0.00,VWS V14.00,2013-05-10 07:48:00,
2013-05-10 03:53:00,66.1,58.0,30.03,WNW,302,0.0,1.0,75,0.00,,---,0.00,VWS V14.00,2013-05-10 07:53:00,
2013-05-10 03:58:00,66.0,57.9,30.03,WNW,302,0.0,0.0,75,0.00,,---,0.00,VWS V14.00,2013-05-10 07:58:00,
2013-05-10 04:03:00,65.8,57.7,30.03,WNW,302,0.0,0.0,75,0.00,,---,0.00,VWS V14.00,2013-05-10 08:03:00,
2013-05-10 04:08:00,65.7,57.9,30.03,WNW,302,0.0,0.0,76,0.00,,---,0.00,VWS V14.00,2013-05-10 08:08:00,
2013-05-10 04:13:00,65.5,57.7,30.03,WNW,302,0.0,1.0,76,0.00,,---,0.00,VWS V14.00,2013-05-10 08:13:00,
2013-05-10 04:18:00,65.4,57.7,30.03,WNW,302,0.0,1.0,76,0.00,,---,0.00,VWS V14.00,2013-05-10 08:18:00,
2013-05-10 04:23:00,65.3,57.5,30.03,WNW,302,0.0,1.0,76,0.00,,---,0.00,VWS V14.00,2013-05-10 08:23:00,
2013-05-10 04:28:00,65.3,57.5,30.03,WNW,302,0.0,0.0,76,0.00,,---,0.00,VWS V14.00,2013-05-10 08:28:00,
2013-05-10 04:33:00,65.1,57.7,30.03,WNW,302,0.0,0.0,77,0.00,,---,0.00,VWS V14.00,2013-05-10 08:33:00,
2013-05-10 04:38:00,64.9,57.5,30.03,WNW,302,0.0,0.0,77,0.00,,---,0.00,VWS V14.00,2013-05-10 08:38:00,
2013-05-10 04:43:00,64.6,57.6,30.03,WNW,302,0.0,0.0,78,0.00,,---,0.00,VWS V14.00,2013-05-10 08:43:00,
2013-05-10 04:48:00,64.2,57.6,30.03,WNW,302,0.0,0.0,79,0.00,,---,0.00,VWS V14.00,2013-05-10 08:48:00,
2013-05-10 04:53:00,63.9,57.6,30.03,WNW,302,0.0,0.0,80,0.00,,---,0.00,VWS V14.00,2013-05-10 08:53:00,
2013-05-10 04:58:00,63.6,57.7,30.03,WNW,302,0.0,0.0,81,0.00,,---,0.00,VWS V14.00,2013-05-10 08:58:00,
2013-05-10 05:03:00,63.2,57.6,30.03,WNW,302,0.0,0.0,82,0.00,,---,0.00,VWS V14.00,2013-05-10 09:03:00,
2013-05-10 05:08:00,62.8,57.6,30.03,WNW,302,0.0,0.0,83,0.00,,---,0.00,VWS V14.00,2013-05-10 09:08:00,
2013-05-10 05:13:00,62.5,57.3,30.03,WNW,302,0.0,0.0,83,0.00,,---,0.00,VWS V14.00,2013-05-10 09:13:00,
2013-05-10 05:18:00,62.1,57.2,30.02,WNW,302,0.0,0.0,84,0.00,,---,0.00,VWS V14.00,2013-05-10 09:18:00,
2013-05-10 05:23:00,61.8,56.9,30.02,WNW,302,0.0,0.0,84,0.00,,---,0.00,VWS V14.00,2013-05-10 09:23:00,
2013-05-10 05:28:00,61.4,56.9,30.02,WNW,302,0.0,0.0,85,0.00,,---,0.00,VWS V14.00,2013-05-10 09:28:00,
2013-05-10 05:33:00,61.2,56.7,30.02,WNW,302,0.0,0.0,85,0.00,,---,0.00,VWS V14.00,2013-05-10 09:33:00,
2013-05-10 05:38:00,60.9,56.4,30.02,WNW,302,0.0,0.0,85,0.00,,---,0.00,VWS V14.00,2013-05-10 09:38:00,
2013-05-10 05:43:00,60.7,56.5,30.02,WNW,302,0.0,0.0,86,0.00,,---,0.00,VWS V14.00,2013-05-10 09:43:00,
2013-05-10 05:48:00,60.5,56.6,30.02,WNW,302,0.0,0.0,87,0.00,,---,0.00,VWS V14.00,2013-05-10 09:48:00,
2013-05-10 05:53:00,60.4,56.5,30.02,WNW,302,0.0,0.0,87,0.00,,---,0.00,VWS V14.00,2013-05-10 09:53:00,
2013-05-10 05:58:00,60.2,56.3,30.02,WNW,302,0.0,0.0,87,0.00,,---,0.00,VWS V14.00,2013-05-10 09:58:00,
2013-05-10 06:03:00,60.0,56.4,30.02,WNW,302,0.0,0.0,88,0.00,,---,0.00,VWS V14.00,2013-05-10 10:03:00,
2013-05-10 06:08:00,59.8,56.2,30.02,WNW,302,0.0,0.0,88,0.00,,---,0.00,VWS V14.00,2013-05-10 10:08:00,
2013-05-10 06:13:00,59.7,56.2,30.02,WNW,302,0.0,0.0,88,0.00,,---,0.00,VWS V14.00,2013-05-10 10:13:00,
2013-05-10 06:18:00,59.6,56.4,30.02,WNW,302,0.0,0.0,89,0.00,,---,0.00,VWS V14.00,2013-05-10 10:18:00,
2013-05-10 06:23:00,59.4,56.2,30.02,NW,306,0.0,0.0,89,0.00,,---,0.00,VWS V14.00,2013-05-10 10:23:00,
2013-05-10 06:28:00,59.3,56.1,30.02,NW,306,0.0,0.0,89,0.00,,---,0.00,VWS V14.00,2013-05-10 10:28:00,
2013-05-10 06:33:00,59.1,55.9,30.02,NW,306,0.0,0.0,89,0.00,,---,0.00,VWS V14.00,2013-05-10 10:33:00,
2013-05-10 06:38:00,59.1,56.2,30.02,NW,306,0.0,0.0,90,0.00,,---,0.00,VWS V14.00,2013-05-10 10:38:00,
2013-05-10 06:43:00,59.0,56.1,30.03,NW,306,0.0,0.0,90,0.00,,---,0.00,VWS V14.00,2013-05-10 10:43:00,
2013-05-10 06:48:00,58.9,56.0,30.03,NW,306,0.0,0.0,90,0.00,,---,0.00,VWS V14.00,2013-05-10 10:48:00,
2013-05-10 06:53:00,58.9,56.0,30.02,NW,306,0.0,0.0,90,0.00,,---,0.00,VWS V14.00,2013-05-10 10:53:00,
2013-05-10 06:58:00,58.9,56.3,30.02,NW,306,0.0,0.0,91,0.00,,---,0.00,VWS V14.00,2013-05-10 10:58:00,
2013-05-10 07:03:00,58.9,56.3,30.02,NW,306,0.0,0.0,91,0.00,,---,0.00,VWS V14.00,2013-05-10 11:03:00,
2013-05-10 07:08:00,59.1,56.5,30.02,NW,306,0.0,0.0,91,0.00,,---,0.00,VWS V14.00,2013-05-10 11:08:00,
2013-05-10 07:13:00,59.2,56.6,30.02,NW,306,0.0,0.0,91,0.00,,---,0.00,VWS V14.00,2013-05-10 11:13:00,
2013-05-10 07:18:00,59.3,56.7,30.02,NW,306,0.0,0.0,91,0.00,,---,0.00,VWS V14.00,2013-05-10 11:18:00,
2013-05-10 07:23:00,59.5,57.2,30.02,NW,306,0.0,0.0,92,0.00,,---,0.00,VWS V14.00,2013-05-10 11:23:00,
2013-05-10 07:28:00,59.7,57.4,30.02,NW,306,0.0,0.0,92,0.00,,---,0.00,VWS V14.00,2013-05-10 11:28:00,
2013-05-10 07:33:00,60.1,57.8,30.02,NW,306,0.0,1.0,92,0.00,,---,0.00,VWS V14.00,2013-05-10 11:33:00,
2013-05-10 07:38:00,60.6,58.0,30.03,NW,305,0.0,1.0,91,0.00,,---,0.00,VWS V14.00,2013-05-10 11:38:00,
2013-05-10 07:43:00,61.1,58.5,30.03,NW,305,0.0,1.0,91,0.00,,---,0.00,VWS V14.00,2013-05-10 11:43:00,
2013-05-10 07:48:00,61.6,59.0,30.02,NW,305,0.0,1.0,91,0.00,,---,0.00,VWS V14.00,2013-05-10 11:48:00,
2013-05-10 07:53:00,62.1,59.1,30.03,NW,305,0.0,1.0,90,0.00,,---,0.00,VWS V14.00,2013-05-10 11:53:00,
2013-05-10 07:58:00,62.7,59.1,30.03,NW,305,0.0,1.0,88,0.00,,---,0.00,VWS V14.00,2013-05-10 11:58:00,
2013-05-10 08:03:00,63.6,59.3,30.03,NW,305,0.0,1.0,86,0.00,,---,0.00,VWS V14.00,2013-05-10 12:03:00,
2013-05-10 08:08:00,64.5,59.6,30.03,NW,305,0.0,2.0,84,0.00,,---,0.00,VWS V14.00,2013-05-10 12:08:00,
2013-05-10 08:13:00,65.5,59.9,30.03,NW,304,2.0,2.0,82,0.00,,---,0.00,VWS V14.00,2013-05-10 12:13:00,
2013-05-10 08:18:00,66.3,60.3,30.04,WNW,303,0.0,4.0,81,0.00,,---,0.00,VWS V14.00,2013-05-10 12:18:00,
2013-05-10 08:23:00,67.2,60.8,30.04,WNW,300,1.0,4.0,80,0.00,,---,0.00,VWS V14.00,2013-05-10 12:23:00,
2013-05-10 08:28:00,67.8,60.3,30.04,WNW,286,4.0,4.0,77,0.00,,---,0.00,VWS V14.00,2013-05-10 12:28:00,
2013-05-10 08:33:00,68.5,60.3,30.04,West,263,3.0,5.0,75,0.00,,---,0.00,VWS V14.00,2013-05-10 12:33:00,
2013-05-10 08:38:00,68.9,60.7,30.04,WSW,255,1.0,5.0,75,0.00,,---,0.00,VWS V14.00,2013-05-10 12:38:00,
2013-05-10 08:43:00,69.4,60.4,30.04,WSW,253,1.0,5.0,73,0.00,,---,0.00,VWS V14.00,2013-05-10 12:43:00,
2013-05-10 08:48:00,69.9,60.5,30.04,WSW,250,2.0,5.0,72,0.00,,---,0.00,VWS V14.00,2013-05-10 12:48:00,
2013-05-10 08:53:00,70.4,60.2,30.04,WSW,250,2.0,5.0,70,0.00,,---,0.00,VWS V14.00,2013-05-10 12:53:00,
2013-05-10 08:58:00,70.8,60.5,30.04,WSW,253,1.0,3.0,70,0.00,,---,0.00,VWS V14.00,2013-05-10 12:58:00,
2013-05-10 09:03:00,71.4,60.7,30.04,WSW,252,0.0,3.0,69,0.00,,---,0.00,VWS V14.00,2013-05-10 13:03:00,
2013-05-10 09:08:00,71.9,60.8,30.04,WSW,251,1.0,3.0,68,0.00,,---,0.00,VWS V14.00,2013-05-10 13:08:00,
2013-05-10 09:13:00,72.6,61.0,30.04,WSW,251,2.0,3.0,67,0.00,,---,0.00,VWS V14.00,2013-05-10 13:13:00,
2013-05-10 09:18:00,73.3,60.8,30.05,WSW,251,1.0,3.0,65,0.00,,---,0.00,VWS V14.00,2013-05-10 13:18:00,
2013-05-10 09:23:00,73.8,61.7,30.04,WSW,251,1.0,3.0,66,0.00,,---,0.00,VWS V14.00,2013-05-10 13:23:00,
2013-05-10 09:28:00,74.4,61.4,30.04,WSW,258,0.0,1.0,64,0.00,,---,0.00,VWS V14.00,2013-05-10 13:28:00,
2013-05-10 09:33:00,75.1,61.7,30.04,WSW,257,0.0,2.0,63,0.00,,---,0.00,VWS V14.00,2013-05-10 13:33:00,
2013-05-10 09:38:00,75.6,61.7,30.04,WSW,257,0.0,5.0,62,0.00,,---,0.00,VWS V14.00,2013-05-10 13:38:00,
2013-05-10 09:43:00,76.1,62.6,30.04,WSW,257,1.0,5.0,63,0.00,,---,0.00,VWS V14.00,2013-05-10 13:43:00,
2013-05-10 09:48:00,76.6,62.2,30.04,West,259,1.0,5.0,61,0.00,,---,0.00,VWS V14.00,2013-05-10 13:48:00,
2013-05-10 09:53:00,77.0,62.1,30.05,West,259,1.0,5.0,60,0.00,,---,0.00,VWS V14.00,2013-05-10 13:53:00,
2013-05-10 09:58:00,77.4,62.4,30.05,WSW,256,1.0,4.0,60,0.00,,---,0.00,VWS V14.00,2013-05-10 13:58:00,
2013-05-10 10:03:00,77.7,62.2,30.05,WSW,256,0.0,4.0,59,0.00,,---,0.00,VWS V14.00,2013-05-10 14:03:00,
2013-05-10 10:08:00,78.0,62.5,30.04,WSW,255,2.0,4.0,59,0.00,,---,0.00,VWS V14.00,2013-05-10 14:08:00,
2013-05-10 10:13:00,78.3,62.3,30.05,WSW,248,1.0,4.0,58,0.00,,---,0.00,VWS V14.00,2013-05-10 14:13:00,
2013-05-10 10:18:00,78.8,62.8,30.04,WSW,250,0.0,4.0,58,0.00,,---,0.00,VWS V14.00,2013-05-10 14:18:00,
2013-05-10 10:23:00,79.3,62.3,30.05,WSW,254,3.0,5.0,56,0.00,,---,0.00,VWS V14.00,2013-05-10 14:23:00,
2013-05-10 10:28:00,79.5,61.9,30.05,WSW,254,3.0,5.0,55,0.00,,---,0.00,VWS V14.00,2013-05-10 14:28:00,
2013-05-10 10:33:00,79.7,62.6,30.05,WSW,257,1.0,8.0,56,0.00,,---,0.00,VWS V14.00,2013-05-10 14:33:00,
2013-05-10 10:38:00,80.0,62.4,30.05,WSW,253,1.0,8.0,55,0.00,,---,0.00,VWS V14.00,2013-05-10 14:38:00,
2013-05-10 10:43:00,80.3,62.7,30.05,West,265,2.0,8.0,55,0.00,,---,0.00,VWS V14.00,2013-05-10 14:43:00,
2013-05-10 10:48:00,80.7,63.0,30.05,WSW,254,5.0,8.0,55,0.00,,---,0.00,VWS V14.00,2013-05-10 14:48:00,
2013-05-10 10:53:00,81.0,62.8,30.05,WSW,240,3.0,8.0,54,0.00,,---,0.00,VWS V14.00,2013-05-10 14:53:00,
2013-05-10 10:58:00,81.2,63.0,30.05,WSW,249,3.0,3.0,54,0.00,,---,0.00,VWS V14.00,2013-05-10 14:58:00,
2013-05-10 11:03:00,81.5,62.2,30.05,WSW,243,3.0,7.0,52,0.00,,---,0.00,VWS V14.00,2013-05-10 15:03:00,
2013-05-10 11:08:00,81.7,61.8,30.05,WSW,248,2.0,7.0,51,0.00,,---,0.00,VWS V14.00,2013-05-10 15:08:00,
2013-05-10 11:13:00,81.8,61.4,30.05,WSW,238,1.0,7.0,50,0.00,,---,0.00,VWS V14.00,2013-05-10 15:13:00,
2013-05-10 11:18:00,82.1,61.6,30.05,WSW,247,3.0,7.0,50,0.00,,---,0.00,VWS V14.00,2013-05-10 15:18:00,
2013-05-10 11:23:00,82.1,61.6,30.04,West,281,7.0,7.0,50,0.00,,---,0.00,VWS V14.00,2013-05-10 15:23:00,
2013-05-10 11:28:00,82.0,61.5,30.05,WSW,250,2.0,3.0,50,0.00,,---,0.00,VWS V14.00,2013-05-10 15:28:00,
2013-05-10 11:33:00,82.4,61.9,30.05,WSW,258,4.0,6.0,50,0.00,,---,0.00,VWS V14.00,2013-05-10 15:33:00,
2013-05-10 11:38:00,82.6,60.9,30.05,West,259,3.0,7.0,48,0.00,,---,0.00,VWS V14.00,2013-05-10 15:38:00,
2013-05-10 11:43:00,82.7,61.6,30.06,WSW,247,6.0,7.0,49,0.00,,---,0.00,VWS V14.00,2013-05-10 15:43:00,
2013-05-10 11:48:00,83.0,61.9,30.06,WSW,246,4.0,7.0,49,0.00,,---,0.00,VWS V14.00,2013-05-10 15:48:00,
2013-05-10 11:53:00,83.2,60.9,30.06,WSW,257,2.0,12.0,47,0.00,,---,0.00,VWS V14.00,2013-05-10 15:53:00,
2013-05-10 11:58:00,83.1,60.2,30.05,WSW,244,2.0,11.0,46,0.00,,---,0.00,VWS V14.00,2013-05-10 15:58:00,
2013-05-10 12:03:00,83.2,59.7,30.05,SW,220,3.0,11.0,45,0.00,,---,0.00,VWS V14.00,2013-05-10 16:03:00,
2013-05-10 12:08:00,83.3,59.8,30.05,SW,227,7.0,11.0,45,0.00,,---,0.00,VWS V14.00,2013-05-10 16:08:00,
2013-05-10 12:13:00,83.5,59.9,30.05,SW,235,3.0,11.0,45,0.00,,---,0.00,VWS V14.00,2013-05-10 16:13:00,
2013-05-10 12:18:00,83.5,59.3,30.05,WSW,252,6.0,11.0,44,0.00,,---,0.00,VWS V14.00,2013-05-10 16:18:00,
2013-05-10 12:23:00,83.4,59.2,30.05,WSW,254,3.0,12.0,44,0.00,,---,0.00,VWS V14.00,2013-05-10 16:23:00,
2013-05-10 12:28:00,83.6,60.7,30.05,WSW,242,2.0,6.0,46,0.00,,---,0.00,VWS V14.00,2013-05-10 16:28:00,
2013-05-10 12:33:00,83.9,58.4,30.05,SW,225,4.0,12.0,42,0.00,,---,0.00,VWS V14.00,2013-05-10 16:33:00,
2013-05-10 12:38:00,84.0,59.1,30.05,SW,221,3.0,12.0,43,0.00,,---,0.00,VWS V14.00,2013-05-10 16:38:00,
2013-05-10 12:43:00,84.3,60.0,30.05,West,261,4.0,12.0,44,0.00,,---,0.00,VWS V14.00,2013-05-10 16:43:00,
2013-05-10 12:48:00,84.8,59.8,30.05,WSW,243,1.0,12.0,43,0.00,,---,0.00,VWS V14.00,2013-05-10 16:48:00,
2013-05-10 12:53:00,85.2,60.8,30.04,WSW,237,4.0,12.0,44,0.00,,---,0.00,VWS V14.00,2013-05-10 16:53:00,
2013-05-10 12:58:00,85.4,61.0,30.04,SSW,213,3.0,7.0,44,0.00,,---,0.00,VWS V14.00,2013-05-10 16:58:00,
2013-05-10 13:03:00,85.5,60.5,30.04,SW,217,4.0,10.0,43,0.00,,---,0.00,VWS V14.00,2013-05-10 17:03:00,
2013-05-10 13:08:00,85.0,60.7,30.04,WSW,240,2.0,10.0,44,0.00,,---,0.00,VWS V14.00,2013-05-10 17:08:00,
2013-05-10 13:13:00,84.2,60.6,30.04,SW,231,4.0,10.0,45,0.00,,---,0.00,VWS V14.00,2013-05-10 17:13:00,
2013-05-10 13:18:00,83.8,60.2,30.03,WSW,239,4.0,10.0,45,0.00,,---,0.00,VWS V14.00,2013-05-10 17:18:00,
2013-05-10 13:23:00,84.1,59.9,30.03,WSW,257,3.0,10.0,44,0.00,,---,0.00,VWS V14.00,2013-05-10 17:23:00,
2013-05-10 13:28:00,84.1,59.2,30.03,SSW,210,4.0,7.0,43,0.00,,---,0.00,VWS V14.00,2013-05-10 17:28:00,
2013-05-10 13:33:00,84.4,59.5,30.03,SW,230,5.0,11.0,43,0.00,,---,0.00,VWS V14.00,2013-05-10 17:33:00,
2013-05-10 13:38:00,84.2,59.3,30.03,WSW,242,6.0,11.0,43,0.00,,---,0.00,VWS V14.00,2013-05-10 17:38:00,
2013-05-10 13:43:00,83.6,60.0,30.03,WSW,246,3.0,11.0,45,0.00,,---,0.00,VWS V14.00,2013-05-10 17:43:00,
2013-05-10 13:48:00,83.3,59.8,30.03,SW,228,2.0,11.0,45,0.00,,---,0.00,VWS V14.00,2013-05-10 17:48:00,
2013-05-10 13:53:00,83.9,61.5,30.03,West,263,1.0,11.0,47,0.00,,---,0.00,VWS V14.00,2013-05-10 17:53:00,
2013-05-10 13:58:00,84.5,60.2,30.03,WSW,245,5.0,8.0,44,0.00,,---,0.00,VWS V14.00,2013-05-10 17:58:00,
2013-05-10 14:03:00,84.3,60.7,30.03,WSW,240,7.0,8.0,45,0.00,,---,0.00,VWS V14.00,2013-05-10 18:03:00,
2013-05-10 14:08:00,84.0,60.4,30.03,North,351,4.0,8.0,45,0.00,,---,0.00,VWS V14.00,2013-05-10 18:08:00,
2013-05-10 14:13:00,84.1,60.5,30.03,NE,55,2.0,9.0,45,0.00,,---,0.00,VWS V14.00,2013-05-10 18:13:00,
2013-05-10 14:18:00,84.1,62.3,30.03,WSW,245,6.0,9.0,48,0.00,,---,0.00,VWS V14.00,2013-05-10 18:18:00,
2013-05-10 14:23:00,84.4,62.0,30.02,SW,236,0.0,9.0,47,0.00,,---,0.00,VWS V14.00,2013-05-10 18:23:00,
2013-05-10 14:28:00,85.0,61.9,30.02,NNW,331,6.0,8.0,46,0.00,,---,0.00,VWS V14.00,2013-05-10 18:28:00,
2013-05-10 14:33:00,85.4,62.3,30.02,WSW,244,4.0,8.0,46,0.00,,---,0.00,VWS V14.00,2013-05-10 18:33:00,
2013-05-10 14:38:00,85.7,60.7,30.02,WSW,240,5.0,8.0,43,0.00,,---,0.00,VWS V14.00,2013-05-10 18:38:00,
2013-05-10 14:43:00,85.8,60.7,30.01,SW,220,3.0,8.0,43,0.00,,---,0.00,VWS V14.00,2013-05-10 18:43:00,
2013-05-10 14:48:00,85.5,59.1,30.01,WSW,245,3.0,10.0,41,0.00,,---,0.00,VWS V14.00,2013-05-10 18:48:00,
2013-05-10 14:53:00,84.8,59.8,30.01,WSW,243,5.0,10.0,43,0.00,,---,0.00,VWS V14.00,2013-05-10 18:53:00,
2013-05-10 14:58:00,84.3,60.0,30.01,WSW,238,7.0,10.0,44,0.00,,---,0.00,VWS V14.00,2013-05-10 18:58:00,
2013-05-10 15:03:00,84.1,59.9,30.01,SW,235,3.0,10.0,44,0.00,,---,0.00,VWS V14.00,2013-05-10 19:03:00,
2013-05-10 15:08:00,84.0,59.8,30.00,WSW,255,1.0,12.0,44,0.00,,---,0.00,VWS V14.00,2013-05-10 19:08:00,
2013-05-10 15:13:00,84.3,60.0,30.00,WSW,250,4.0,12.0,44,0.00,,---,0.00,VWS V14.00,2013-05-10 19:13:00,
2013-05-10 15:18:00,84.6,60.9,30.00,WSW,239,3.0,12.0,45,0.00,,---,0.00,VWS V14.00,2013-05-10 19:18:00,
2013-05-10 15:23:00,84.6,60.3,29.99,WSW,246,2.0,12.0,44,0.00,,---,0.00,VWS V14.00,2013-05-10 19:23:00,
2013-05-10 15:28:00,84.6,60.3,29.99,SW,218,5.0,8.0,44,0.00,,---,0.00,VWS V14.00,2013-05-10 19:28:00,
2013-05-10 15:33:00,84.8,61.1,29.99,WSW,249,3.0,8.0,45,0.00,,---,0.00,VWS V14.00,2013-05-10 19:33:00,
2013-05-10 15:38:00,84.9,61.2,29.98,WSW,253,1.0,10.0,45,0.00,,---,0.00,VWS V14.00,2013-05-10 19:38:00,
2013-05-10 15:43:00,85.0,60.7,29.98,WSW,248,5.0,10.0,44,0.00,,---,0.00,VWS V14.00,2013-05-10 19:43:00,
2013-05-10 15:48:00,85.0,60.7,29.98,WSW,239,4.0,10.0,44,0.00,,---,0.00,VWS V14.00,2013-05-10 19:48:00,
2013-05-10 15:53:00,84.8,60.5,29.98,WSW,245,5.0,10.0,44,0.00,,---,0.00,VWS V14.00,2013-05-10 19:53:00,
2013-05-10 15:58:00,84.7,61.0,29.98,SSW,213,4.0,7.0,45,0.00,,---,0.00,VWS V14.00,2013-05-10 19:58:00,
2013-05-10 16:03:00,84.6,60.3,29.98,West,259,4.0,11.0,44,0.00,,---,0.00,VWS V14.00,2013-05-10 20:03:00,
2013-05-10 16:08:00,84.7,59.8,29.97,West,261,3.0,11.0,43,0.00,,---,0.00,VWS V14.00,2013-05-10 20:08:00,
2013-05-10 16:12:00,84.9,60.6,29.97,West,275,4.0,11.0,44,0.00,,---,0.00,VWS V14.00,2013-05-10 20:12:00,
2013-05-10 16:17:00,84.8,59.8,29.97,WSW,245,2.0,11.0,43,0.00,,---,0.00,VWS V14.00,2013-05-10 20:17:00,
2013-05-10 16:22:00,84.7,60.4,29.97,WSW,250,1.0,11.0,44,0.00,,---,0.00,VWS V14.00,2013-05-10 20:22:00,
2013-05-10 16:28:00,84.7,60.4,29.97,NW,319,2.0,5.0,44,0.00,,---,0.00,VWS V14.00,2013-05-10 20:28:00,
2013-05-10 16:33:00,84.7,59.1,29.97,SW,232,3.0,8.0,42,0.00,,---,0.00,VWS V14.00,2013-05-10 20:33:00,
2013-05-10 16:38:00,84.6,59.7,29.96,WSW,248,3.0,8.0,43,0.00,,---,0.00,VWS V14.00,2013-05-10 20:38:00,
2013-05-10 16:43:00,84.2,59.3,29.96,SW,221,3.0,8.0,43,0.00,,---,0.00,VWS V14.00,2013-05-10 20:43:00,
2013-05-10 16:48:00,84.0,60.4,29.96,WSW,240,2.0,8.0,45,0.00,,---,0.00,VWS V14.00,2013-05-10 20:48:00,
2013-05-10 16:53:00,84.0,60.4,29.96,South,189,2.0,8.0,45,0.00,,---,0.00,VWS V14.00,2013-05-10 20:53:00,
2013-05-10 16:58:00,83.8,60.2,29.96,SSW,211,5.0,7.0,45,0.00,,---,0.00,VWS V14.00,2013-05-10 20:58:00,
2013-05-10 17:03:00,83.5,60.6,29.96,WSW,250,5.0,7.0,46,0.00,,---,0.00,VWS V14.00,2013-05-10 21:03:00,
2013-05-10 17:08:00,83.1,60.8,29.96,SW,235,0.0,11.0,47,0.00,,---,0.00,VWS V14.00,2013-05-10 21:08:00,
2013-05-10 17:12:00,82.9,60.6,29.97,West,262,1.0,11.0,47,0.00,,---,0.00,VWS V14.00,2013-05-10 21:12:00,
2013-05-10 17:17:00,82.8,61.1,29.96,WSW,246,4.0,11.0,48,0.00,,---,0.00,VWS V14.00,2013-05-10 21:17:00,
2013-05-10 17:22:00,82.9,61.2,29.96,SW,235,2.0,11.0,48,0.00,,---,0.00,VWS V14.00,2013-05-10 21:22:00,
2013-05-10 17:27:00,82.9,61.2,29.96,SW,236,4.0,6.0,48,0.00,,---,0.00,VWS V14.00,2013-05-10 21:27:00,
2013-05-10 17:32:00,82.8,60.5,29.96,SW,229,3.0,6.0,47,0.00,,---,0.00,VWS V14.00,2013-05-10 21:32:00,
2013-05-10 17:37:00,82.6,60.9,29.95,WSW,239,1.0,7.0,48,0.00,,---,0.00,VWS V14.00,2013-05-10 21:37:00,
2013-05-10 17:42:00,82.5,60.8,29.95,WSW,252,1.0,7.0,48,0.00,,---,0.00,VWS V14.00,2013-05-10 21:42:00,
2013-05-10 17:47:00,82.4,60.8,29.95,SW,236,4.0,7.0,48,0.00,,---,0.00,VWS V14.00,2013-05-10 21:47:00,
2013-05-10 17:52:00,82.2,61.2,29.95,WNW,302,4.0,7.0,49,0.00,,---,0.00,VWS V14.00,2013-05-10 21:52:00,
2013-05-10 17:58:00,82.0,60.4,29.95,WSW,241,2.0,6.0,48,0.00,,---,0.00,VWS V14.00,2013-05-10 21:58:00,
2013-05-10 18:03:00,81.8,60.8,29.95,WSW,242,0.0,6.0,49,0.00,,---,0.00,VWS V14.00,2013-05-10 22:03:00,
2013-05-10 18:08:00,81.6,61.2,29.95,SW,225,3.0,6.0,50,0.00,,---,0.00,VWS V14.00,2013-05-10 22:08:00,
2013-05-10 18:13:00,81.5,60.5,29.96,WSW,237,0.0,6.0,49,0.00,,---,0.00,VWS V14.00,2013-05-10 22:13:00,
2013-05-10 18:18:00,81.2,61.4,29.95,WSW,248,2.0,6.0,51,0.00,,---,0.00,VWS V14.00,2013-05-10 22:18:00,
2013-05-10 18:23:00,81.0,61.2,29.95,SSW,209,1.0,6.0,51,0.00,,---,0.00,VWS V14.00,2013-05-10 22:23:00,
2013-05-10 18:28:00,80.8,61.0,29.95,SW,219,1.0,2.0,51,0.00,,---,0.00,VWS V14.00,2013-05-10 22:28:00,
2013-05-10 18:33:00,80.7,60.9,29.95,WSW,254,2.0,4.0,51,0.00,,---,0.00,VWS V14.00,2013-05-10 22:33:00,
2013-05-10 18:38:00,80.7,60.9,29.95,WSW,254,0.0,6.0,51,0.00,,---,0.00,VWS V14.00,2013-05-10 22:38:00,
2013-05-10 18:43:00,80.5,61.3,29.95,WSW,248,1.0,6.0,52,0.00,,---,0.00,VWS V14.00,2013-05-10 22:43:00,
2013-05-10 18:48:00,80.4,61.2,29.95,WSW,248,0.0,6.0,52,0.00,,---,0.00,VWS V14.00,2013-05-10 22:48:00,
2013-05-10 18:53:00,80.2,61.0,29.95,WSW,248,0.0,6.0,52,0.00,,---,0.00,VWS V14.00,2013-05-10 22:53:00,
2013-05-10 18:58:00,80.1,60.9,29.95,WSW,248,2.0,2.0,52,0.00,,---,0.00,VWS V14.00,2013-05-10 22:58:00,
2013-05-10 19:03:00,79.9,61.3,29.95,WSW,248,0.0,3.0,53,0.00,,---,0.00,VWS V14.00,2013-05-10 23:03:00,
2013-05-10 19:08:00,79.8,61.2,29.94,WSW,248,0.0,3.0,53,0.00,,---,0.00,VWS V14.00,2013-05-10 23:08:00,
2013-05-10 19:13:00,79.6,61.5,29.94,WSW,248,0.0,3.0,54,0.00,,---,0.00,VWS V14.00,2013-05-10 23:13:00,
2013-05-10 19:18:00,79.4,61.3,29.94,WSW,248,0.0,3.0,54,0.00,,---,0.00,VWS V14.00,2013-05-10 23:18:00,
2013-05-10 19:23:00,79.2,61.7,29.94,WSW,248,0.0,3.0,55,0.00,,---,0.00,VWS V14.00,2013-05-10 23:23:00,
2013-05-10 19:28:00,79.1,61.6,29.94,WSW,248,0.0,1.0,55,0.00,,---,0.00,VWS V14.00,2013-05-10 23:28:00,
2013-05-10 19:33:00,78.9,61.9,29.94,WSW,248,0.0,1.0,56,0.00,,---,0.00,VWS V14.00,2013-05-10 23:33:00,
2013-05-10 19:38:00,78.7,61.7,29.94,WSW,248,0.0,1.0,56,0.00,,---,0.00,VWS V14.00,2013-05-10 23:38:00,
2013-05-10 19:43:00,78.4,61.4,29.94,WSW,248,0.0,1.0,56,0.00,,---,0.00,VWS V14.00,2013-05-10 23:43:00,
2013-05-10 19:48:00,78.2,62.2,29.93,WSW,248,0.0,1.0,58,0.00,,---,0.00,VWS V14.00,2013-05-10 23:48:00,
2013-05-10 19:53:00,77.8,62.3,29.93,WSW,248,0.0,1.0,59,0.00,,---,0.00,VWS V14.00,2013-05-10 23:53:00,
2013-05-10 19:58:00,77.4,62.4,29.92,WSW,248,0.0,0.0,60,0.00,,---,0.00,VWS V14.00,2013-05-10 23:58:00,
2013-05-10 20:03:00,77.1,62.2,29.93,WSW,248,0.0,0.0,60,0.00,,---,0.00,VWS V14.00,2013-05-11 00:03:00,
2013-05-10 20:08:00,76.8,61.9,29.93,WSW,248,0.0,1.0,60,0.00,,---,0.00,VWS V14.00,2013-05-11 00:08:00,
2013-05-10 20:13:00,76.6,61.7,29.93,WSW,248,0.0,1.0,60,0.00,,---,0.00,VWS V14.00,2013-05-11 00:13:00,
2013-05-10 20:18:00,76.4,62.0,29.93,WSW,248,0.0,1.0,61,0.00,,---,0.00,VWS V14.00,2013-05-11 00:18:00,
2013-05-10 20:23:00,76.2,61.8,29.94,WSW,248,0.0,1.0,61,0.00,,---,0.00,VWS V14.00,2013-05-11 00:23:00,
2013-05-10 20:28:00,76.1,61.7,29.94,WSW,248,0.0,0.0,61,0.00,,---,0.00,VWS V14.00,2013-05-11 00:28:00,
2013-05-10 20:33:00,75.9,61.5,29.94,WSW,248,0.0,0.0,61,0.00,,---,0.00,VWS V14.00,2013-05-11 00:33:00,
2013-05-10 20:38:00,75.8,61.9,29.94,WSW,248,0.0,0.0,62,0.00,,---,0.00,VWS V14.00,2013-05-11 00:38:00,
2013-05-10 20:43:00,75.6,61.7,29.94,WSW,248,0.0,0.0,62,0.00,,---,0.00,VWS V14.00,2013-05-11 00:43:00,
2013-05-10 20:48:00,75.4,61.9,29.94,WSW,248,0.0,0.0,63,0.00,,---,0.00,VWS V14.00,2013-05-11 00:48:00,
2013-05-10 20:53:00,75.2,61.8,29.94,WSW,248,0.0,0.0,63,0.00,,---,0.00,VWS V14.00,2013-05-11 00:53:00,
2013-05-10 20:58:00,75.0,62.0,29.94,WSW,248,0.0,0.0,64,0.00,,---,0.00,VWS V14.00,2013-05-11 00:58:00,
2013-05-10 21:03:00,74.8,61.8,29.95,WSW,248,0.0,0.0,64,0.00,,---,0.00,VWS V14.00,2013-05-11 01:03:00,
2013-05-10 21:08:00,74.5,61.5,29.95,WSW,248,0.0,1.0,64,0.00,,---,0.00,VWS V14.00,2013-05-11 01:08:00,
2013-05-10 21:13:00,74.3,61.8,29.95,WSW,248,0.0,1.0,65,0.00,,---,0.00,VWS V14.00,2013-05-11 01:13:00,
2013-05-10 21:18:00,74.1,61.6,29.95,WSW,248,0.0,1.0,65,0.00,,---,0.00,VWS V14.00,2013-05-11 01:18:00,
2013-05-10 21:23:00,73.9,61.8,29.95,WSW,248,0.0,1.0,66,0.00,,---,0.00,VWS V14.00,2013-05-11 01:23:00,
2013-05-10 21:28:00,73.8,61.7,29.95,WSW,248,0.0,0.0,66,0.00,,---,0.00,VWS V14.00,2013-05-11 01:28:00,
2013-05-10 21:33:00,73.7,61.7,29.95,WSW,248,0.0,0.0,66,0.00,,---,0.00,VWS V14.00,2013-05-11 01:33:00,
2013-05-10 21:38:00,73.7,61.7,29.96,WSW,248,0.0,2.0,66,0.00,,---,0.00,VWS V14.00,2013-05-11 01:38:00,
2013-05-10 21:43:00,73.8,61.3,29.96,WSW,248,0.0,2.0,65,0.00,,---,0.00,VWS V14.00,2013-05-11 01:43:00,
2013-05-10 21:48:00,73.9,61.4,29.96,WSW,248,0.0,2.0,65,0.00,,---,0.00,VWS V14.00,2013-05-11 01:48:00,
2013-05-10 21:53:00,74.1,61.6,29.96,WSW,248,1.0,2.0,65,0.00,,---,0.00,VWS V14.00,2013-05-11 01:53:00,
2013-05-10 21:58:00,74.2,61.2,29.95,WSW,248,0.0,0.0,64,0.00,,---,0.00,VWS V14.00,2013-05-11 01:58:00,
2013-05-10 22:03:00,74.3,61.3,29.95,WSW,248,0.0,1.0,64,0.00,,---,0.00,VWS V14.00,2013-05-11 02:03:00,
2013-05-10 22:08:00,74.2,61.7,29.95,WSW,248,0.0,1.0,65,0.00,,---,0.00,VWS V14.00,2013-05-11 02:08:00,
2013-05-10 22:13:00,74.0,61.5,29.95,WSW,248,0.0,1.0,65,0.00,,---,0.00,VWS V14.00,2013-05-11 02:13:00,
2013-05-10 22:18:00,73.7,61.7,29.95,WSW,248,0.0,1.0,66,0.00,,---,0.00,VWS V14.00,2013-05-11 02:18:00,
2013-05-10 22:23:00,73.3,61.7,29.95,WSW,248,0.0,1.0,67,0.00,,---,0.00,VWS V14.00,2013-05-11 02:23:00,
2013-05-10 22:28:00,72.9,61.3,29.96,WSW,248,0.0,1.0,67,0.00,,---,0.00,VWS V14.00,2013-05-11 02:28:00,
2013-05-10 22:33:00,72.6,61.4,29.96,WSW,248,0.0,1.0,68,0.00,,---,0.00,VWS V14.00,2013-05-11 02:33:00,
2013-05-10 22:38:00,72.3,61.2,29.96,WSW,248,0.0,1.0,68,0.00,,---,0.00,VWS V14.00,2013-05-11 02:38:00,
2013-05-10 22:43:00,72.1,61.0,29.96,WSW,248,0.0,1.0,68,0.00,,---,0.00,VWS V14.00,2013-05-11 02:43:00,
2013-05-10 22:48:00,71.9,61.2,29.96,WSW,248,0.0,1.0,69,0.00,,---,0.00,VWS V14.00,2013-05-11 02:48:00,
2013-05-10 22:53:00,71.7,61.0,29.96,WSW,248,0.0,1.0,69,0.00,,---,0.00,VWS V14.00,2013-05-11 02:53:00,
2013-05-10 22:58:00,71.5,61.2,29.96,WSW,248,1.0,2.0,70,0.00,,---,0.00,VWS V14.00,2013-05-11 02:58:00,
2013-05-10 23:03:00,71.4,60.7,29.96,WSW,248,0.0,2.0,69,0.00,,---,0.00,VWS V14.00,2013-05-11 03:03:00,
2013-05-10 23:08:00,71.4,60.7,29.96,WSW,249,0.0,2.0,69,0.00,,---,0.00,VWS V14.00,2013-05-11 03:08:00,
2013-05-10 23:12:00,71.5,60.8,29.96,WSW,249,0.0,2.0,69,0.00,,---,0.00,VWS V14.00,2013-05-11 03:12:00,
2013-05-10 23:17:00,71.6,60.5,29.96,WSW,249,0.0,3.0,68,0.00,,---,0.00,VWS V14.00,2013-05-11 03:17:00,
2013-05-10 23:22:00,71.7,60.6,29.96,WSW,249,0.0,3.0,68,0.00,,---,0.00,VWS V14.00,2013-05-11 03:22:00,
2013-05-10 23:27:00,71.7,60.6,29.96,WSW,249,0.0,1.0,68,0.00,,---,0.00,VWS V14.00,2013-05-11 03:27:00,
2013-05-10 23:32:00,71.7,60.6,29.96,WSW,249,0.0,1.0,68,0.00,,---,0.00,VWS V14.00,2013-05-11 03:32:00,
2013-05-10 23:37:00,71.6,60.5,29.96,WSW,249,0.0,1.0,68,0.00,,---,0.00,VWS V14.00,2013-05-11 03:37:00,
2013-05-10 23:43:00,71.6,60.5,29.96,WSW,249,1.0,1.0,68,0.00,,---,0.00,VWS V14.00,2013-05-11 03:43:00,
2013-05-10 23:48:00,71.5,60.4,29.96,WSW,249,0.0,1.0,68,0.00,,---,0.00,VWS V14.00,2013-05-11 03:48:00,
2013-05-10 23:53:00,71.4,60.7,29.96,WSW,249,0.0,1.0,69,0.00,,---,0.00,VWS V14.00,2013-05-11 03:53:00,
2013-05-10 23:58:00,71.2,60.5,29.96,WSW,249,0.0,1.0,69,0.00,,---,0.00,VWS V14.00,2013-05-11 03:58:00,